Track CYGNUS NG-14 now! 10-day predictions CYGNUS NG-14 is classified as:
1 46530U 20069A 21024.08313054 .00002780 00000-0 11355-3 0 9993 2 46530 51.6419 338.2059 0010759 348.6410 114.7655 15.27834794 17483